Погода в Крещенке

Погода в Крещенке : погода сейчас, прогноз погоды и архив. Всё, что Вы хотите узнать о погоде в Крещенке!

Хотите узнать прогноз погоды в Крещенке? Тогда Вам сюда: Погода в Крещенке

Поиск расширенной информации на нашем сайте:

Другие новости

Новости СМИ2

Главная страница сайта

Новости сайта

03.07.2017

Напоминаем, что на нашем специализированном сайте Метеоцентр.Азия вы можете получить высокодетализированные автоматические прогнозы погоды по пунктам России, СНГ и мира в авиационном формате (включающие направление и скорость ветра, видимость, явления погоды, количество и форму облачности, нижнюю и верхнюю границу облачности).

Рекомендуем: Подключение к Таксик приложения на google play Таксик.

Погода в Крещенке - сегодня

Время (UTC), дата Ветер
(°,м/с) 
Видим.   Явления Облачность Т
(°С)
Тd
(°С)
f(%) Тe
(°С)
Pmin
(гПа)
dP
(гПа)
Po
(мм)
O2
(г/м3)
Тmin Tmax R s Состояние
почвы
00 19.02.18 240 (ЮЗ) 20000 м  {ливн. осадки}  10/10 300 м кучево-дожд. 
[Cb cap]
-17.5 -20.2 79 -20  1034.3  0.2  763  330  -18.7    0.8  51  неравномерный
сухой снег
100% 
03 19.02.18 240 (ЮЗ) 10 км  слаб. ливневой снег  10/10 300 м кучево-дожд. 
[Cb cap]
-15.3 -17.7 82 -18  1034.6  0.4  763  327           
06 19.02.18 240 (ЮЗ) 20000 м  {ливн. осадки}  6/0 средняя 
[Ac cast]
-11.9 -15.7 73 -16  1034.1  -0.2  763  323           
09 19.02.18 250 (З) 20000 м    9/9 600 м 
[Sc]
-8.8 -13.1 71 -13  1033.9  -0.1  763  319           
12 19.02.18 230 (ЮЗ) 20000 м    ясно 
-9.9 -13.3 76 -13  1033.9  763  320    -8.3  0.3     
15 19.02.18 240 (ЮЗ) 20000 м    8/0 верхняя 
[Ci sp]
-12.4 -15.5 78 -17  1034.3  0.3  763  323           
18 19.02.18 240 (ЮЗ) 10 км  слаб. ливневой снег  10/10 300 м кучево-дожд. 
[Cb cap]
-12.1 -15.3 77 -15  1033.9  -0.5  762  323           
21 19.02.18 250 (З) 20000 м  {ливн. осадки}  10/10 300 м кучево-дожд. 
[Cb cap]
-11.9 -15.1 77 -15  1033.7  -0.2  762  322           
00 20.02.18 250 (З) 20000 м  {ливн. осадки}  3/3 300 м кучево-дожд. 
[Cb cap]
-12.4 -15.7 76 -16  1034  0.4  763  323  -12.8    0.0  51  неравномерный
сухой снег
100% 
03 20.02.18 240 (ЮЗ) 20000 м    5/3 300 м верхняя 
[Sc|Ci sp]
-14.3 -17.5 77 -18  1034.4  0.2  763  326  -14.4         
06 20.02.18 240 (ЮЗ) 20000 м    10/0 верхняя 
[Ci sp]
-10.4 -16.2 62 -13  1033.7  -0.4  762  321           
09 20.02.18 250 (З) 20000 м    10/0 верхняя 
[Cs]
-7.5 -13.5 62 -12  1033.2  -0.3  762  317           
12 20.02.18 230 (ЮЗ) 20000 м    10/0 верхняя 
[Cs]
-8.7 -13.2 70 -10  1032.1  -1.2  761  318    -7.3       
15 20.02.18 210 (ЮЗ) 20000 м    10/0 верхняя 
[Cs]
-10.5 -13.9 76 -10  1031.5  -0.7  761  320           
18 20.02.18 210 (ЮЗ) 20000 м    ясно 
-12.7 -15.2 81 -13  1030.3  -1.4  760  322           
21 20.02.18 180 (Ю) 20000 м    ясно 
-15.2 -17 86 -15  1029.2  -1.1  759  325           
00 21.02.18 160 (Ю) 20000 м    ясно 
-20 -22.4 81 -20  1028.8  -0.8  758  331  -20      51  неравномерный
сухой снег
100% 
03 21.02.18 120 (ЮВ) 20000 м    10/6 600 м верхняя 
[Sc|Ci sp]
-15.9 -18 84 -16  1027.3  -1.2  757  326  -20.5         
06 21.02.18 140 (ЮВ) 20000 м    10/0 верхняя 
[Ci sp]
-9.4 -14.4 67 -11  1026  -0.8  757  317           
09 21.02.18 130 (ЮВ) 20000 м    8/0 верхняя 
[Ci sp]
-6.2 -14.1 54 -10  1023.7  -2.1  755  313           
12 21.02.18 120 (ЮВ) 20000 м    10/3 600 м верхняя 
[Sc|Ci sp]
-6.6 -13.8 57 -9  1021.6  -2  754  312    -5.5       
15 21.02.18 110 (В) 20000 м    ясно 
-8.7 -14.2 64 -12  1019.5  -2.3  752  314           
18 21.02.18 100 (В) 20000 м    5/0 верхняя 
[Ci fib]
-9.2 -12.6 76 -13  1016.9  -2.6  750  314           
21 21.02.18 110 (В) 20000 м    10/0 верхняя 
[Ci fib]
-8.5 -12.2 75 -11  1014  -2.8  748  312           
00 22.02.18 130 (ЮВ) 20000 м    9/9 600 м 
[Sc]
-7.7 -11.7 73 -11  1011.6  -2.3  746  311  -9.8      51  неравномерный
сухой снег
100% 
Время (UTC), дата Ветер
(°,м/с) 
Видим.   Явления Облачность Т
(°С)
Тd
(°С)
f(%) Тe
(°С)
Pmin
(гПа)
dP
(гПа)
Po
(мм)
O2
(г/м3)
Тmin Tmax R s Состояние
почвы

Для получения пояснительной информации подведите курсор к названию столбца.

ПОГОДА в Крещенке - архив

Всё, что Вы хотите узнать о погоде в Крещенке - удобно и подробно!

Выберите нужную дату (начиная с 1 января 2015* года) и нажмите кнопку "Найти".
Будут отображены архивные сводки погоды по пункту Крещенка, начиная с указанной даты.


Отображать данные в формате CSV (для использования в таблицах Excel)


Внимание! Наш архив погоды предназначен исключительно для личного некоммерческого использования в познавательных целях. Если Вам необходимы официальные справки о состоянии погоды (для производственных, юридических, коммерческих и т.п. целей), обращайтесь в органы Росгидромета.

*Примечание: данная дата относится к архиву по метеостанциям СССР (Россия, СНГ, Балтия).
Архив по метеостанциям Зарубежной Европы и Азии (кроме Китая) хранится 10 дней, по другим регионам земного шара (Китай, Африка, Америка, Австралия, Океания) - 1 день.

Крещенка - район местоположения метеостанции


Название, широта, долгота, высота метеостанции:
Крещенка 55.9°ш. 80°д. 129 м над ур. моря [Российская Федерация]

Дополнительная информация

В oтличие oт бoльшинства пoгoдных сайтoв мы публикуем пoдрoбную метеoинфoрмацию в детальнoм прoфессиoнальнoм фoрмате.

Характеристики температуры и влажнoсти вoздуха измеряются на высoте 2 м в тени вдали oт зданий и деревьев.
Скoрoсть ветра измеряется на высoте 10 м (на урoвне рoста челoвека скoрoсть ветра ниже в 1.5-2 раза). Если метеoстанция нахoдится в гoрoде или в лесу, тo скoрoсть ветра занижена на 2-4 м/с пo сравнению с oткрытым местoм. Скoрoсть ветра над акватoриями крупных рек и oзёр, а также на вершинах хoлмoв на 2-5 м/с выше, чем в oбычных услoвиях.
Атмoсфернoе давление в разных тoчках местнoсти мoжет значительнo oтличаться oт давления на метеoстанции, в зависимoсти oт услoвий рельефа (при пoдъёме на 10 м давление пoнижается примернo на 1 мм рт.ст.).